Groton, CT

6:02 PM EDT on August 21, 2017 (GMT -0400)
Groton-New London

Weather History for KGON - October, 2012

Change the Weather History Date:

Wednesday, October 10, 2012

  Actual Average Record
Temperature  
Mean Temperature 58 °F -  
Max Temperature 68 °F 62 °F 86 °F (2011)
Min Temperature 51 °F 44 °F 31 °F (1980)
Degree Days  
Heating Degree Days 6    
Growing Degree Days 8 (Base 50)    
Moisture  
Dew Point 53 °F    
Average Humidity 86    
Maximum Humidity 94    
Minimum Humidity 63    
Precipitation  
Precipitation 0.09 in - - ()
Sea Level Pressure  
Sea Level Pressure 29.93 in    
Wind  
Wind Speed 9 mph (NE)    
Max Wind Speed 21 mph    
Max Gust Speed 30 mph    
Visibility 6 miles    
Events Rain    
Averages and records for this station are not official NWS values.
T = Trace of Precipitation, MM = Missing Value Source: NWS Daily Summary

Daily Weather History Graph

Daily Weather History Graph

Search for Another Location

Airport or City:

Trip Planner

Search our weather history database for the weather conditions in past years. The results will help you decide how hot, cold, wet, or windy it might be!

Date:

Astronomy

Oct. 10, 2012 Rise Set
Actual Time 6:54 AM EDT 6:14 PM EDT
Civil Twilight 6:27 AM EDT 6:42 PM EDT
Nautical Twilight 5:55 AM EDT 7:14 PM EDT
Astronomical Twilight 5:23 AM EDT 7:46 PM EDT
Moon 1:24 AM EDT (10/10) 3:18 PM EDT (10/10)
Length of Visible Light 12h 14m
Length of Day
11h 19m
Waning Crescent, 27% of the Moon is Illuminated
Oct 10
Waning Crescent
Oct 15
New
Oct 21
First Quarter
Oct 29
Full
Nov 6
Last Quarter

Hourly Weather History & Observations

Time (EDT) Temp. Dew Point Humidity Pressure Visibility Wind Dir Wind Speed Gust Speed Precip Events Conditions
12:56 AM 54.0 °F 46.0 °F 75% 30.09 in 10.0 mi NNE 8.1 mph - N/A   Overcast
1:56 AM 53.1 °F 46.9 °F 80% 30.09 in 10.0 mi NNE 8.1 mph - N/A   Overcast
2:12 AM 53.6 °F 48.2 °F 82% 30.08 in 10.0 mi NNE 8.1 mph - N/A   Overcast
2:56 AM 53.1 °F 48.9 °F 86% 30.06 in 10.0 mi North 8.1 mph - 0.00 in   Overcast
3:47 AM 53.6 °F 48.2 °F 82% 30.05 in 8.0 mi NNE 6.9 mph - 0.00 in Rain Light Rain
3:56 AM 53.1 °F 48.9 °F 86% 30.06 in 8.0 mi North 5.8 mph - 0.00 in Rain Light Rain
4:56 AM 51.1 °F 48.9 °F 92% 30.04 in 9.0 mi NNE 8.1 mph - 0.00 in   Overcast
5:56 AM 52.0 °F 50.0 °F 93% 30.02 in 9.0 mi North 9.2 mph - 0.00 in   Overcast
6:56 AM 52.0 °F 50.0 °F 93% 30.01 in 5.0 mi North 6.9 mph - 0.00 in Rain Light Rain
7:17 AM 53.6 °F 51.8 °F 94% 30.00 in 2.5 mi NNE 8.1 mph - 0.00 in   Overcast
7:40 AM 53.6 °F 51.8 °F 94% 30.00 in 1.5 mi NE 10.4 mph - 0.00 in Rain Light Rain
7:56 AM 54.0 °F 52.0 °F 93% 29.99 in 1.8 mi NNE 9.2 mph - 0.00 in Rain Light Rain
8:03 AM 53.6 °F 51.8 °F 94% 29.99 in 2.5 mi NNE 9.2 mph - 0.00 in Rain Light Rain
8:12 AM 53.6 °F 51.8 °F 94% 29.99 in 3.0 mi NNE 9.2 mph - 0.00 in Rain Light Rain
8:23 AM 55.4 °F 53.6 °F 94% 29.99 in 2.5 mi NNE 9.2 mph - 0.00 in Rain Light Rain
8:33 AM 55.4 °F 53.6 °F 94% 29.98 in 2.5 mi NE 9.2 mph - 0.00 in Rain Light Rain
8:35 AM 55.4 °F 53.6 °F 94% 29.98 in 3.0 mi NE 10.4 mph - 0.00 in Rain Light Rain
8:45 AM 55.4 °F 53.6 °F 94% 29.98 in 8.0 mi NE 10.4 mph - 0.00 in Rain Light Rain
8:56 AM 55.9 °F 54.0 °F 93% 29.98 in 10.0 mi NE 10.4 mph - 0.00 in   Overcast
9:03 AM 57.2 °F 53.6 °F 88% 29.98 in 10.0 mi NE 10.4 mph - N/A   Overcast
9:23 AM 57.2 °F 55.4 °F 94% 29.97 in 6.0 mi NE 11.5 mph - 0.00 in Rain Light Rain
9:41 AM 57.2 °F 55.4 °F 94% 29.96 in 6.0 mi NE 9.2 mph - 0.00 in   Overcast
9:56 AM 57.9 °F 55.0 °F 90% 29.96 in 9.0 mi ENE 8.1 mph - 0.00 in   Overcast
10:56 AM 60.1 °F 57.0 °F 90% 29.92 in 3.0 mi East 10.4 mph - 0.00 in Rain Light Rain
11:14 AM 60.8 °F 57.2 °F 88% 29.90 in 1.8 mi East 12.7 mph - 0.00 in Rain Light Rain
11:27 AM 60.8 °F 57.2 °F 88% 29.90 in 2.0 mi East 12.7 mph 18.4 mph 0.00 in Rain Light Rain
11:36 AM 60.8 °F 57.2 °F 88% 29.89 in 1.5 mi East 10.4 mph - 0.00 in Rain Light Rain
11:56 AM 61.0 °F 57.9 °F 90% 29.89 in 1.5 mi East 11.5 mph - 0.00 in Rain Light Rain
12:36 PM 62.6 °F 60.8 °F 94% 29.86 in 3.0 mi East 16.1 mph 24.2 mph 0.04 in   Overcast
12:56 PM 63.0 °F 60.1 °F 90% 29.85 in 4.0 mi ESE 12.7 mph 23.0 mph 0.04 in Rain Light Rain
1:23 PM 62.6 °F 60.8 °F 94% 29.83 in 2.0 mi ESE 12.7 mph - 0.03 in Rain Heavy Rain
1:56 PM 64.0 °F - N/A% 29.81 in 2.0 mi ESE 15.0 mph - 0.05 in Rain Light Rain
2:02 PM 64.4 °F - N/A% 29.81 in 5.0 mi ESE 12.7 mph - 0.00 in Rain Light Rain
2:56 PM 66.0 °F 62.1 °F 87% 29.79 in 10.0 mi SE 4.6 mph - 0.00 in   Mostly Cloudy
3:56 PM 66.0 °F 62.1 °F 87% 29.77 in 10.0 mi South 6.9 mph - N/A   Overcast
4:56 PM 66.9 °F 54.0 °F 63% 29.76 in 10.0 mi West 13.8 mph 18.4 mph N/A   Partly Cloudy
5:56 PM 63.0 °F 51.1 °F 65% 29.75 in 10.0 mi West 10.4 mph - N/A   Clear
6:56 PM 61.0 °F 52.0 °F 72% 29.77 in 10.0 mi West 5.8 mph - N/A   Partly Cloudy
7:56 PM 59.0 °F 53.1 °F 81% 29.78 in 10.0 mi WNW 4.6 mph - N/A   Mostly Cloudy
8:56 PM 61.0 °F 50.0 °F 67% 29.80 in 10.0 mi West 9.2 mph - N/A   Clear
9:56 PM 60.1 °F 48.0 °F 64% 29.82 in 10.0 mi West 9.2 mph - N/A   Clear
10:56 PM 59.0 °F 48.0 °F 67% 29.84 in 10.0 mi West 9.2 mph 18.4 mph N/A   Scattered Clouds
11:56 PM 55.0 °F 44.1 °F 67% 29.87 in 10.0 mi NNW 20.7 mph 29.9 mph N/A   Partly Cloudy